Detroit, MI

4:59 PM EDT on September 22, 2017 (GMT -0400)
Detroit City

Weather History for KDET - November, 2012

Change the Weather History Date:

Tuesday, November 13, 2012

  Actual Average Record
Temperature  
Mean Temperature 32 °F -  
Max Temperature 35 °F 47 °F 69 °F (1989)
Min Temperature 28 °F 33 °F 16 °F (1986)
Degree Days  
Heating Degree Days 32    
Moisture  
Dew Point 19 °F    
Average Humidity 56    
Maximum Humidity 69    
Minimum Humidity 50    
Precipitation  
Precipitation 0.00 in - - ()
Sea Level Pressure  
Sea Level Pressure 30.46 in    
Wind  
Wind Speed 8 mph (West)    
Max Wind Speed 13 mph    
Max Gust Speed 18 mph    
Visibility 10 miles    
Events      
Averages and records for this station are not official NWS values.
T = Trace of Precipitation, MM = Missing Value Source: NWS Daily Summary

Daily Weather History Graph

Daily Weather History Graph

Search for Another Location

Airport or City:

Trip Planner

Search our weather history database for the weather conditions in past years. The results will help you decide how hot, cold, wet, or windy it might be!

Date:

Astronomy

Nov. 13, 2012 Rise Set
Actual Time 7:21 AM EST 5:11 PM EST
Civil Twilight 6:50 AM EST 5:41 PM EST
Nautical Twilight 6:16 AM EST 6:15 PM EST
Astronomical Twilight 5:43 AM EST 6:48 PM EST
Moon 6:58 AM EST (11/13) 5:02 PM EST (11/13)
Length of Visible Light 10h 50m
Length of Day
9h 50m
Waning Crescent, 0% of the Moon is Illuminated
Nov 13
Waning Crescent
Nov 13
New
Nov 20
First Quarter
Nov 28
Full
Dec 6
Last Quarter

Hourly Weather History & Observations

Time (EST) Temp. Windchill Dew Point Humidity Pressure Visibility Wind Dir Wind Speed Gust Speed Precip Events Conditions
12:53 AM 35.1 °F 27.4 °F 23.0 °F 61% 30.28 in 10.0 mi WSW 10.4 mph - N/A   Overcast
1:53 AM 35.1 °F 27.4 °F 24.1 °F 64% 30.30 in 10.0 mi SW 10.4 mph 18.4 mph N/A   Overcast
2:53 AM 35.1 °F 27.9 °F 24.1 °F 64% 30.32 in 10.0 mi West 9.2 mph - N/A   Overcast
3:53 AM 34.0 °F 26.0 °F 23.0 °F 64% 30.33 in 10.0 mi West 10.4 mph 18.4 mph N/A   Overcast
4:53 AM 34.0 °F 25.0 °F 19.0 °F 54% 30.35 in 10.0 mi West 12.7 mph - N/A   Overcast
5:53 AM 34.0 °F 26.6 °F 19.0 °F 54% 30.37 in 10.0 mi WNW 9.2 mph - N/A   Overcast
6:53 AM 33.1 °F 27.7 °F 19.9 °F 59% 30.40 in 10.0 mi Variable 5.8 mph - N/A   Overcast
7:53 AM 33.1 °F 27.7 °F 19.0 °F 56% 30.43 in 10.0 mi WNW 5.8 mph - N/A   Overcast
8:53 AM 33.1 °F 24.9 °F 17.1 °F 52% 30.46 in 10.0 mi WNW 10.4 mph - N/A   Overcast
9:53 AM 33.1 °F 26.9 °F 19.0 °F 56% 30.48 in 10.0 mi NW 6.9 mph - N/A   Overcast
10:53 AM 33.1 °F 27.7 °F 18.0 °F 54% 30.50 in 10.0 mi West 5.8 mph - N/A   Overcast
11:53 AM 34.0 °F 28.0 °F 19.0 °F 54% 30.49 in 10.0 mi WNW 6.9 mph - N/A   Overcast
12:53 PM 34.0 °F 28.0 °F 18.0 °F 52% 30.48 in 10.0 mi WNW 6.9 mph - N/A   Overcast
1:53 PM 34.0 °F 27.2 °F 18.0 °F 52% 30.49 in 10.0 mi West 8.1 mph - N/A   Overcast
2:53 PM 34.0 °F 28.0 °F 18.0 °F 52% 30.49 in 10.0 mi West 6.9 mph - N/A   Overcast
3:53 PM 34.0 °F 28.8 °F 18.0 °F 52% 30.50 in 10.0 mi West 5.8 mph - N/A   Overcast
4:53 PM 34.0 °F 29.8 °F 18.0 °F 52% 30.51 in 10.0 mi West 4.6 mph - N/A   Overcast
5:53 PM 34.0 °F 28.8 °F 17.1 °F 50% 30.52 in 10.0 mi WNW 5.8 mph - N/A   Overcast
6:53 PM 34.0 °F - 18.0 °F 52% 30.53 in 10.0 mi Calm Calm - N/A   Overcast
7:53 PM 34.0 °F - 18.0 °F 52% 30.54 in 10.0 mi Calm Calm - N/A   Overcast
8:53 PM 34.0 °F - 17.1 °F 50% 30.56 in 10.0 mi Calm Calm - N/A   Overcast
9:53 PM 32.0 °F - 18.0 °F 56% 30.57 in 10.0 mi Calm Calm - N/A   Partly Cloudy
10:53 PM 30.0 °F - 19.9 °F 66% 30.58 in 10.0 mi Calm Calm - N/A   Clear
11:53 PM 28.0 °F - 19.0 °F 69% 30.57 in 10.0 mi Calm Calm - N/A   Clear